Tracking 28125 objects as of 3-Oct-2023
HD Live streaming from Space Station
objects crossing your sky now

SHIJIAN-15 (SJ-15)

Track SHIJIAN-15 (SJ-15) now!
10-day predictions
SHIJIAN-15 (SJ-15) is classified as:


NORAD ID: 39210
Int'l Code: 2013-037C
Perigee: 666.9 km
Apogee: 678.0 km
Inclination: 98.1 °
Period: 98.0 minutes
Semi major axis: 7043 km
RCS: Unknown
Launch date: July 19, 2013
Source: People's Republic of China (PRC)
Launch site: Taiyaun Space Center, China (TSC)

SHIJIAN 15 is a technology satellite, precise mission unknown at present.
Your satellite tracking list
Your tracking list is empty




NASA's NSSDC Master Catalog

Two Line Element Set (TLE):
1 39210U 13037C   23275.83467493  .00000972  00000-0  17538-3 0  9997
2 39210  98.0680 270.9517 0007846  56.4736 303.7218 14.68670422549108
Source of the keplerian elements: AFSPC